Location: ??????????
(54.4061°N, 22.6114°E)
Time: 06:05:33
(UTC+00:00)

USA 238 DEB - Pass Details

Date: 23 October 2019
Orbit: 1028 x 1184 km, 63.4° (Epoch: 11 November)

Event Time Altitude Azimuth Distance (km) Brightness Sun altitude
Rises 17:32:09 0° 226° (SW) 3,792 7.1 -20.7°
Reaches altitude 10° 17:34:44 10° 226° (SW) 2,855 6.4 -21.0°
Maximum altitude 17:41:30 89° 141° (SE) 1,079 3.6 -22.0°
Enters shadow 17:46:08 23° 50° (NE) 2,127 4.9 -22.7°
